Location: Bremen
(53.0830°N, 8.8000°E)
Time: 19:53:03
(UTC+01:00)

Envisat - Pass Details

Date: 09 November 2025
Orbit: 761 x 762 km, 98.4° (Epoch: 05 December)

Event Time Altitude Azimuth Distance (km) Brightness Sun altitude
Rises 03:52:01 0° 12° (NNE) 3,239 6.6 -33.7°
Reaches altitude 10° 03:54:21 10° 9° (N) 2,309 5.7 -33.4°
Enters shadow 03:55:28 17° 6° (N) 1,877 5.2 -33.2°
